Location: Fatehalanka
(16.3139°N, 80.8379°E)
Time: 08:20:30
(UTC+00:00)

Cosmos 2061 Rocket - Pass Details

Date: 14 May 2026
Orbit: 966 x 1011 km, 82.9° (Epoch: 6 June)

Event Time Altitude Azimuth Distance (km) Brightness Sun altitude
Exits shadow 15:34:45 54° 267° (W) 1,160 4.5 -33.9°
Maximum altitude 15:34:58 54° 275° (W) 1,157 4.5 -33.9°
Drops below altitude 10° 15:41:01 10° 352° (N) 2,717 6.8 -35.1°
Sets 15:43:37 0° 357° (N) 3,672 7.5 -35.5°
